RH
9 6 7 11 10 8 8 9 9 11 10 12 9 8 9 14 32 41 51 66 67 58 48 37 48 52 54 48 48 39 32 33 34 34 38 42 47 52 34 40 54 64 66
9 10 8 9 10 10 8 8 9 9 9 9 10 10 11 12 16 28 47 64 85 88 87 70 66 65 74 58 71 79 78 58 46 38 34 40 54 42 42 47 49 54 58
7 8 8 8 9 9 10 9 9 10 9 9 10 9 9 10 12 16 30 46 68 74 72 74 78 89 95 94 96 96 95 90 78 50 47 59 58 51 41 47 52 52 54
7 7 8 9 9 9 10 10 10 11 12 11 10 11 12 12 14 14 15 18 22 35 57 73 94 98 90 92 92 94 97 97 98 96 94 86 65 56 47 51 51 57 49
8 7 8 9 9 9 10 10 11 12 12 12 12 11 11 13 14 16 17 18 29 32 56 77 87 71 67 62 77 79 92 98 97 97 97 96 90 64 45 49 48 62 53
10 9 9 9 10 10 11 13 13 14 15 15 14 12 11 11 12 14 17 19 20 34 31 46 53 50 45 51 58 81 85 84 88 95 95 96 93 91 67 37 42 84 56
11 11 11 11 11 11 11 11 11 12 12 12 13 13 13 12 11 11 11 13 23 27 26 37 42 44 29 30 44 60 69 87 77 81 87 96 93 86 90 48 42 46 60
12 11 10 10 9 9 9 9 9 9 10 11 11 10 11 11 11 10 10 11 13 14 30 30 37 40 58 48 39 49 71 75 77 86 80 84 88 95 94 65 38 58 83
9 8 9 9 10 13 16 18 19 20 20 15 13 13 12 11 10 10 10 9 10 11 14 14 18 40 53 94 66 64 64 67 75 68 78 89 92 95 93 46 44 86 89
11 16 23 27 25 22 21 22 27 34 42 49 49 39 25 18 15 13 12 10 9 9 10 11 15 27 40 56 75 69 63 62 76 70 78 97 92 88 54 45 99 98 100
32 32 26 22 20 22 25 27 29 29 29 29 35 60 60 52 43 26 20 16 14 13 12 12 16 29 33 50 58 54 55 77 82 86 94 88 82 52 50 80 98 98 100
28 26 22 23 31 30 28 16 12 10 10 14 25 31 58 82 80 70 52 37 32 25 17 15 13 14 40 32 37 52 59 90 91 96 80 80 59 56 76 100 99 95 96
33 33 33 31 30 26 12 10 14 24 38 40 48 52 50 79 99 96 82 66 56 47 38 35 33 24 19 41 64 53 61 73 81 72 76 67 60 74 87 96 99 98 99
35 34 31 32 34 17 12 21 24 72 99 100 100 100 100 100 100 100 100 94 74 56 46 38 37 38 30 46 76 75 66 58 67 71 72 63 69 94 80 88 99 100 96
31 27 34 31 34 14 17 30 44 43 69 86 95 95 94 94 90 93 94 84 69 43 34 31 29 34 37 76 100 87 78 72 85 79 69 92 100 100 96 99 100 98 100
32 29 33 41 40 19 17 21 39 62 47 43 63 56 51 39 38 39 38 36 31 35 35 38 43 65 59 87 83 79 68 100 84 68 95 100 99 99 97 99 99 99 93
28 28 32 48 54 45 29 20 18 31 64 85 55 46 59 81 79 73 72 71 76 78 54 42 44 51 98 58 68 96 100 79 100 99 98 100 100 100 99 97 84 76 65
35 46 31 49 53 55 48 46 41 55 70 71 76 74 93 91 91 80 83 88 89 99 100 50 48 55 62 81 87 99 90 91 99 100 100 99 98 97 71 66 71 56 46
46 48 43 45 56 61 57 53 49 57 75 77 96 92 99 98 97 99 99 100 97 100 99 98 97 88 88 89 88 84 90 98 99 99 98 75 58 64 67 57 46 33 29
59 50 57 58 61 70 71 62 66 79 81 81 78 84 84 84 85 94 94 100 100 82 79 99 99 92 100 99 100 98 99 98 74 57 67 66 58 56 46 33 31 31 34
65 67 64 59 67 72 71 71 79 92 93 96 98 95 90 97 100 99 99 99 99 99 100 99 98 99 99 98 84 54 56 70 66 56 54 49 39 30 30 31 34 36 32
66 67 69 71 72 65 69 80 83 89 90 92 90 99 99 99 98 99 99 100 100 100 100 92 72 55 49 55 61 61 56 54 53 47 37 32 32 32 33 30 24 21 20
76 82 81 76 75 77 88 91 88 89 96 95 94 93 91 93 92 86 75 64 55 49 59 65 60 52 48 50 52 54 47 39 33 31 27 25 22 15 11 10 12 15 10
75 79 79 79 74 75 78 80 83 83 85 84 83 72 52 44 44 46 54 58 60 60 58 53 50 52 56 54 43 35 31 28 24 19 12 9 8 9 8 6 5 4 8
84 80 82 84 87 85 81 75 61 48 46 43 40 41 48 56 58 59 63 64 60 57 55 56 57 57 48 38 33 30 27 23 16 5 4 4 5 5 3 3 6 22 22
90 89 88 89 88 71 53 49 46 45 51 55 59 60 63 64 65 68 69 66 64 60 60 61 53 40 36 35 31 23 13 6 4 4 4 5 3 3 5 20 27 25 20
Wind_Speed
42 43 44 45 44 42 41 42 44 44 44 44 45 44 42 43 42 40 40 40 38 35 34 35 36 36 33 33 33 33 33 32 34 33 35 36 36 35 34 33 33 33 33
42 43 44 46 46 44 44 43 43 46 48 46 46 45 44 44 45 44 44 42 39 38 38 40 38 39 38 36 34 35 36 35 36 35 36 34 34 34 32 33 34 35 34
42 43 44 46 47 46 45 45 45 46 49 50 47 47 45 44 46 46 44 42 42 41 43 45 43 42 40 40 38 41 41 37 38 39 36 34 34 35 35 35 35 36 35
41 42 44 45 46 47 47 46 47 47 47 49 51 48 46 46 45 47 48 48 47 46 45 45 43 42 42 43 43 43 39 37 39 39 36 35 36 37 37 37 37 37 38
42 42 42 44 46 47 50 49 49 50 50 51 53 53 53 49 48 48 50 51 50 46 44 44 43 43 42 42 45 46 47 44 41 41 40 38 38 40 41 40 41 38 40
40 41 42 44 45 47 47 48 49 50 52 52 53 55 58 59 57 52 49 48 49 48 46 45 44 46 47 45 45 47 49 50 47 47 46 46 44 42 44 44 45 43 44
37 38 39 41 42 44 46 48 50 52 54 56 57 57 58 60 60 60 59 56 53 52 49 48 48 47 49 48 48 48 50 49 51 50 49 49 46 46 46 46 46 46 45
34 36 38 40 43 46 49 52 55 58 60 62 63 63 63 63 63 63 64 63 60 58 56 55 53 52 53 52 51 49 49 50 51 50 51 52 49 50 49 50 51 47 48
34 36 39 41 44 46 50 54 57 60 63 66 68 70 70 70 69 69 67 65 66 64 62 61 60 54 53 55 53 54 50 52 52 54 53 53 51 50 48 50 53 46 51
33 35 36 37 42 46 50 55 58 62 64 66 68 71 72 74 74 74 73 72 71 70 70 68 64 61 58 63 60 58 56 54 53 53 53 52 52 52 51 51 54 52 53
28 31 35 40 46 49 53 56 60 63 65 67 70 70 70 73 73 74 73 72 72 73 74 73 70 64 63 63 63 64 60 55 54 52 51 52 52 51 51 51 55 54 55
31 31 37 39 45 47 52 54 58 61 64 67 64 66 68 66 69 70 71 71 69 68 67 64 63 62 59 65 66 62 59 55 53 51 51 51 51 50 46 50 56 57 59
28 33 36 43 44 49 47 48 53 48 48 52 52 52 51 55 58 64 65 66 66 64 64 63 61 60 57 54 56 59 57 52 51 51 52 50 51 47 47 60 56 54 60
27 29 36 38 41 39 37 41 41 33 33 35 39 35 37 40 44 49 56 60 62 62 62 61 61 59 59 52 51 51 53 51 47 50 50 50 53 49 54 54 57 61 62
23 25 30 35 37 32 31 32 32 29 25 24 24 25 29 32 33 34 41 45 50 52 56 56 59 60 54 47 44 46 45 49 47 47 48 53 51 54 56 58 60 63 64
21 23 27 30 30 26 24 22 26 23 20 17 16 17 19 22 26 27 31 35 38 41 44 45 48 43 43 47 40 43 45 46 44 47 43 53 45 49 52 53 56 63 61
20 22 24 26 26 28 24 23 23 20 17 12 11 13 13 15 15 16 20 23 23 27 31 39 45 44 30 40 42 42 44 39 45 47 45 50 54 59 59 61 61 60 61
14 22 21 23 24 24 24 19 18 15 12 9 5 8 8 5 8 13 9 10 19 19 22 19 28 34 36 37 39 36 37 41 46 51 50 52 54 54 56 57 57 60 64
16 17 17 21 22 19 19 19 11 14 11 8 10 7 7 4 2 3 1 5 7 10 16 22 24 28 36 36 40 36 40 44 40 43 46 49 53 55 56 56 58 61 65
14 11 17 17 19 15 13 14 15 14 8 9 10 8 8 9 6 6 2 7 3 8 14 12 16 22 25 26 28 30 35 39 41 43 46 49 50 52 55 58 61 65 69
13 11 14 18 13 7 13 13 13 16 11 10 12 10 6 8 12 9 4 5 5 6 9 18 19 17 21 23 26 30 34 38 42 45 48 50 53 57 61 64 67 71 74
14 11 12 12 11 6 10 10 13 15 13 7 12 12 7 5 9 6 6 2 3 6 8 11 14 19 22 25 28 32 36 39 43 45 49 53 57 62 66 70 73 77 80
14 12 11 12 12 10 5 10 12 13 12 10 11 11 9 8 8 7 6 5 7 10 13 15 19 22 25 28 31 32 35 39 43 48 54 59 64 69 74 77 81 83 81
12 12 11 9 9 8 8 10 11 12 12 12 12 11 10 10 9 9 9 11 13 15 17 20 23 24 25 27 31 35 39 43 49 56 63 70 75 79 85 87 78 60 32
11 11 13 11 9 8 8 9 10 11 12 12 11 10 10 10 11 13 15 16 17 19 21 22 22 23 26 29 34 38 44 50 56 64 72 79 84 81 66 50 30 15 17
12 12 12 11 8 8 8 9 10 12 13 14 15 15 15 16 16 18 18 18 20 22 21 20 23 25 29 33 38 44 49 55 63 68 69 70 61 44 25 11 13 15 17
Wind_Direction
259 257 258 258 258 254 253 255 255 255 256 257 259 256 256 257 257 256 255 255 259 262 265 265 269 270 274 276 278 278 277 278 279 281 283 283 285 290 292 295 294 294 297
258 258 258 258 259 259 257 257 259 260 259 257 255 255 254 255 257 255 255 258 262 262 263 264 265 271 272 274 276 274 272 273 275 278 280 281 284 287 293 295 295 295 296
260 260 260 260 260 262 264 262 261 261 260 260 259 258 254 252 255 257 258 260 260 259 261 263 264 266 270 276 277 278 271 269 269 273 275 277 282 286 292 293 293 294 292
261 261 262 262 264 264 264 263 261 259 258 259 260 258 257 255 251 254 255 256 257 259 260 263 266 267 269 271 274 275 274 265 278 275 270 275 283 283 284 286 290 292 293
261 262 262 264 264 264 264 263 264 265 263 260 258 258 258 254 251 250 253 256 257 257 258 260 263 268 270 272 274 275 275 274 281 277 274 276 280 284 286 285 286 287 292
259 262 264 264 265 266 267 267 267 266 265 264 262 260 259 258 256 252 248 247 251 252 253 254 259 265 270 272 270 270 271 275 275 276 278 284 284 285 285 288 288 285 292
262 264 266 268 270 271 271 272 271 269 268 266 264 263 261 259 258 260 258 250 246 248 249 253 255 261 265 269 269 269 272 271 273 275 277 281 285 286 285 289 287 286 288
262 266 269 272 274 275 274 274 273 270 267 266 265 263 261 259 258 257 255 255 256 253 249 251 255 259 264 268 267 266 267 270 272 273 277 280 283 284 289 290 288 287 284
267 270 272 271 271 272 272 271 269 267 264 262 260 258 259 259 259 257 255 254 255 254 254 255 255 255 259 254 265 266 266 267 269 274 276 280 282 283 287 286 284 291 282
272 272 275 278 283 283 281 276 272 270 267 264 263 261 257 254 252 253 254 255 255 255 256 257 257 258 256 256 261 264 267 269 270 274 278 280 282 283 286 286 282 281 284
279 283 285 290 289 288 286 282 278 274 270 267 263 259 256 257 256 254 252 252 253 253 254 256 258 257 257 256 257 262 266 268 272 275 278 281 282 283 282 284 282 283 284
284 288 298 300 300 298 297 294 290 280 272 266 262 257 255 253 254 254 254 253 253 254 254 256 258 260 258 259 259 262 264 267 272 276 279 281 283 283 281 283 283 281 287
296 299 304 306 301 309 308 311 305 286 271 263 263 261 257 254 253 252 251 252 253 252 253 255 255 258 260 260 260 260 261 265 270 277 279 279 282 280 281 285 279 285 291
299 301 305 306 317 316 314 318 310 299 281 272 264 267 262 260 257 254 252 249 249 250 250 251 253 254 256 257 258 262 262 265 270 274 278 284 279 281 281 285 282 289 290
313 314 318 323 325 319 319 328 317 305 289 270 253 248 252 255 256 256 249 250 250 251 251 249 251 254 255 253 260 264 260 264 266 271 275 274 273 272 276 278 283 286 283
317 313 330 327 335 328 318 335 341 336 309 286 272 262 252 250 251 253 253 253 249 247 248 251 249 252 249 256 266 264 263 264 269 271 275 286 280 288 286 280 282 287 296
318 317 329 336 345 353 334 323 327 336 345 341 287 269 258 255 253 252 246 242 239 247 246 243 243 246 247 262 262 261 262 271 269 277 277 279 283 289 288 290 295 296 297
325 344 332 346 347 356 357 358 355 3 341 343 322 289 290 253 277 232 211 239 228 217 219 233 248 245 250 252 258 255 270 267 271 268 275 279 285 289 291 294 297 297 298
334 330 342 345 349 350 358 359 0 352 346 321 297 285 298 324 21 258 264 281 163 194 220 212 229 247 254 260 258 267 273 280 276 281 285 287 288 290 294 295 296 297 298
344 344 341 340 344 9 12 10 4 8 22 58 57 60 97 119 132 150 161 137 176 225 235 239 258 257 258 254 272 269 271 279 285 288 290 290 292 294 295 297 298 299 300
348 333 335 330 344 23 25 28 33 18 37 46 48 43 112 90 20 32 119 28 236 287 231 249 260 259 261 269 279 284 287 291 292 294 298 300 300 300 299 299 300 302 302
340 341 350 0 348 354 353 29 19 37 32 59 42 57 74 45 32 46 55 95 271 283 287 286 288 291 292 295 296 296 297 299 299 299 300 301 301 300 301 302 302 302 302
345 343 349 349 1 358 353 9 11 25 17 22 30 37 37 27 21 15 6 340 312 311 314 308 302 301 302 301 300 300 302 305 307 306 305 304 304 304 303 300 299 300 303
329 331 334 341 346 6 16 18 19 16 20 27 24 17 12 5 351 341 340 337 329 321 313 311 309 307 305 307 310 311 313 312 312 311 311 308 305 302 301 301 302 302 297
320 310 334 332 341 352 6 12 13 12 14 15 4 357 353 348 341 341 338 331 325 321 317 313 310 312 312 312 314 317 316 314 314 316 313 308 305 307 307 307 306 302 302
311 301 309 318 323 343 354 359 2 7 6 359 352 347 342 338 334 331 327 322 321 319 313 311 313 314 316 319 322 322 322 323 322 322 318 317 317 317 323 335 321 312 308